User: anonymous   Login
Location: Unspecified
(0.0000°N, 0.0000°E)
Time: 04:07:35
(UTC+00:00)
Language:

STRAND 1 - Orbit

View from above orbital plane
View from above orbital plane
View from above satellite
View from above satellite

Ground track
Ground track

The orbit data is extracted from the following two-line orbital elements,

1 39090U 13009E   19228.84080651 +.00000016 +00000-0 +20777-4 0  9992
2 39090 098.4837 073.7929 0010278 110.2931 249.9361 14.35093125338858
Epoch (UTC): 16 August 2019 20:10:45
Eccentricity: 0.0010278
inclination: 98.4837°
perigee height: 767 km
apogee height: 782 km
right ascension of ascending node: 73.7929°
argument of perigee: 110.2931°
revolutions per day: 14.35093125
mean anomaly at epoch: 249.9361°
orbit number at epoch: 33885

The dashed part of the orbit path shows where the satellite is in the earth's shadow,  

DLR